Location: Starlight Observatory
(38.4029°N, 85.8936°W)
Time: 17:32:55
(UTC-04:00)

Daily predictions for brighter satellites

Satellite Brightness Start Highest point End
(mag) Time Altitude Azimuth Time Altitude Azimuth Time Altitude Azimuth
H-2A R/B 4.2 20:01:26 10° WSW 20:06:28 45° S 20:38:44 10° ESE
BREEZE-M DEB (TANK) 4.5 20:50:51 10° W 20:52:58 22° SW 20:56:28 10° SSE
Envisat 4.1 20:52:56 10° ESE 20:57:04 26° ENE 21:01:12 10° NNE
Cosmos 2227 4.3 20:51:27 10° NNW 20:57:11 71° ENE 21:02:51 10° SSE
Cosmos 1302 Rocket 4.2 20:52:13 10° SSW 20:57:24 83° WNW 21:02:37 10° NNE
ATLAS CENTAUR R/B 2.8 20:55:19 10° WNW 20:57:49 41° SW 21:03:29 10° SSE
USA 234 4.2 20:55:14 10° E 21:01:04 36° NNE 21:06:55 10° NNW
Resurs 01 Rocket 1.6 20:58:04 10° SSE 21:02:30 72° ENE 21:06:57 10° N
Intercosmos 25 Rocket 4.1 21:00:47 10° SSE 21:03:30 26° E 21:06:42 10° NNE
CZ-3B DEB 3.1 21:01:44 10° WNW 21:05:09 21° WSW 21:07:21 10° SSW
Cosmos 1455 2.5 21:02:02 10° SSW 21:05:47 70° W 21:09:34 10° N
GRACE-1 3.7 21:04:02 10° N 21:06:47 67° E 21:09:28 10° S
GRACE-2 3.7 21:04:25 10° N 21:07:09 67° E 21:09:51 10° S
OAO 3 Rocket 3.4 21:03:37 10° WSW 21:08:24 59° S 21:13:15 10° E
SEDSat Delta rocket 4.2 21:04:37 10° SW 21:09:11 35° SSE 21:14:21 10° ESE
Cosmos 1939 Rocket 4.3 21:06:11 10° ESE 21:09:18 22° ENE 21:12:24 10° NNE
Cosmos 2142 Rocket 4.5 21:09:25 10° S 21:15:28 67° E 21:21:35 10° NNE
Lacrosse 4 Rocket 1.8 21:11:40 10° NNW 21:15:54 50° ENE 21:19:56 11° SE
Helios 1B rocket 2.8 21:12:43 10° NNE 21:16:35 40° E 21:20:27 10° S
Atlas Centaur 2 3.4 21:13:15 10° SW 21:19:10 36° SSE 21:25:41 12° ESE
ERBS 2.5 21:19:53 10° NW 21:23:20 69° SW 21:26:20 13° SSE
ERS-1 Rocket 4.3 21:22:05 13° ESE 21:25:14 22° ENE 21:29:03 10° NNE
Cosmos 2026 Rocket 4.0 21:25:05 10° N 21:31:18 70° E 21:37:23 10° SSE
Cosmos 2263 Rocket 2.6 21:27:16 10° N 21:32:38 45° ENE 21:36:40 17° SE
Cosmos 1869 4.0 21:32:56 10° SSW 21:36:47 55° W 21:40:40 10° N
Cosmos 2322 Rocket 2.4 21:33:51 10° SSW 21:39:26 77° WNW 21:45:05 10° NNE
CZ-4B DEB 2.8 21:38:38 22° SE 21:40:21 53° ENE 21:43:19 10° N
USA 229 DEB 4.1 21:35:48 10° S 21:41:55 37° ESE 21:48:08 10° NE
USA 229 4.1 21:35:56 10° S 21:42:02 36° ESE 21:48:13 10° NE
COSMOS 2428 4.0 21:43:29 18° ESE 21:43:47 18° E 21:47:33 10° ENE
Cosmos 1733 Rocket 3.1 21:40:09 10° N 21:44:36 66° E 21:48:10 15° SSE
Cosmos 1992 Rocket 4.0 21:42:13 10° SSW 21:47:27 89° ESE 21:52:43 10° NNE
Cosmos 2360 Rocket 2.4 21:43:09 10° S 21:48:31 47° ESE 21:53:56 10° NE
Cosmos 1862 Rocket 3.5 21:46:45 10° S 21:51:11 79° E 21:55:41 10° N
USA 186 3.2 21:49:01 10° SSW 21:51:29 32° W 21:54:08 10° NNW
Cosmos 1825 2.5 21:47:52 10° NNW 21:51:38 66° W 21:55:15 11° S
SAR-Lupe-4 3.9 21:52:43 15° S 21:55:36 65° WSW 21:59:11 10° NNW
Okean 1-7 4.5 21:56:11 20° E 21:56:11 20° E 21:59:13 10° NE
Helios 1A 3.5 21:56:05 11° S 22:00:08 58° W 22:04:20 10° NNW
Cosmos 2322 3.8 21:55:46 10° S 22:01:17 52° ESE 22:06:49 10° NNE
Cosmos 397 4.4 21:57:52 10° NNW 22:02:04 83° WSW 22:03:58 31° SSE
SPOT 5 4.0 22:02:04 24° E 22:03:08 26° ENE 22:06:56 10° NNE
ATLAS 5 CENTAUR R/B 2.6 22:02:26 10° NNW 22:08:25 59° NE 22:11:35 30° ESE
SL-16 R/B 3.4 22:03:22 10° SW 22:08:46 45° WNW 22:14:12 10° N
Cosmos 1655 Rocket 4.2 22:02:23 10° N 22:08:46 74° W 22:15:05 10° S
Cosmos 1933 3.7 22:05:33 10° SSW 22:09:33 66° W 22:13:34 10° N
Cosmos 1703 Rocket 3.8 22:10:27 38° SE 22:11:34 47° E 22:15:49 10° NNE
Cosmos 1408 4.4 22:10:08 10° NNW 22:13:24 30° W 22:16:37 10° SSW
ARGOS 3.9 22:15:14 31° E 22:16:36 36° ENE 22:21:28 10° N
Cosmos 2266 Rocket 4.1 22:13:39 10° N 22:19:51 58° E 22:22:35 34° SE
Cosmos 2333 Rocket 4.2 22:26:29 13° ENE 22:26:29 13° ENE 22:27:29 10° ENE
YAOGAN 11 4.3 22:23:44 46° E 22:24:13 48° ENE 22:28:25 10° N
Cosmos 968 Rocket 3.4 22:21:05 10° NNW 22:26:18 73° ENE 22:27:53 45° SE
Cosmos 2221 Rocket 3.7 22:26:56 52° E 22:27:02 52° E 22:31:21 10° NNE
Cosmos 1867 3.5 22:24:46 10° NNW 22:30:15 71° ENE 22:31:43 48° SE
Cosmos 2278 Rocket 4.2 22:27:45 10° NNE 22:30:32 14° NE 22:31:49 13° ENE
H-2A R/B 3.0 22:31:00 28° ENE 22:31:10 28° ENE 22:35:21 10° N
Cosmos 1844 Rocket 3.6 22:30:02 10° N 22:35:00 32° ENE 22:35:50 31° ENE
SL-08 RB Rocket 4.3 22:35:33 40° ENE 22:35:33 40° ENE 22:39:46 10° N
Envisat 4.4 22:31:33 11° SSW 22:35:53 35° W 22:40:31 10° NNW
Cosmos 1782 4.5 22:42:04 24° NE 22:42:04 24° NE 22:43:57 10° NNE
USA 234 3.3 22:41:13 41° SSE 22:43:44 73° SW 22:50:17 10° NW
YAOGAN 6 3.7 22:44:48 36° WSW 22:45:19 38° W 22:48:44 10° NNW
MetOp-A 4.1 22:46:31 52° S 22:47:54 85° WSW 22:53:18 10° NNW
CZ-4C R/B 4.3 22:43:06 10° NNW 22:48:48 25° NE 22:51:55 20° ENE
OAO 3 Rocket 3.8 22:47:01 10° W 22:51:07 43° SW 22:51:07 43° SW
Cosmos 2219 Rocket 3.2 22:54:47 31° ENE 22:54:47 31° ENE 22:58:11 10° NE
Lacrosse 4 Rocket 4.1 22:51:53 10° WNW 22:54:12 14° WSW 22:56:19 11° SW
SEDSat Delta rocket 4.3 22:49:59 10° WSW 22:54:29 40° SSW 22:54:29 40° SSW
H-2A R/B 3.7 22:57:30 24° NE 22:57:30 24° NE 22:59:57 10° N
Terra 3.3 22:57:33 25° NE 22:57:33 25° NE 23:00:38 10° NNE
Nadezhda 2 Rocket 4.4 22:56:21 10° N 23:02:49 78° E 23:03:56 62° SSE
ERS-1 Rocket 4.0 23:02:05 31° SW 23:03:43 40° W 23:08:26 10° NNW
Atlas Centaur 2 3.1 23:01:14 10° WSW 23:08:14 48° S 23:08:19 48° S
SeaSat 1 2.4 23:10:54 80° N 23:10:54 80° N 23:15:38 10° NNW
USA 245 4.4 23:14:53 58° SW 23:15:39 64° WSW 23:20:45 10° NNW
Cosmos 2263 Rocket 4.0 23:11:58 10° NW 23:16:11 22° W 23:18:24 18° SW
MOS 1-B Rocket 4.0 23:16:14 61° SSW 23:17:08 72° WSW 23:22:47 10° NNW
Meteor 1-10 Rocket 4.2 23:18:03 83° SSE 23:18:17 87° E 23:24:11 10° N
SPOT 1/Viking Rocket 3.5 23:18:47 80° WNW 23:18:47 80° WNW 23:23:51 10° NNW
S3M 4.3 23:22:42 50° ENE 23:22:42 50° ENE 23:27:51 10° NNE
Meteor 1-11 Rocket 4.4 23:19:03 10° N 23:23:21 42° NE 23:23:21 42° NE
Okean 2 Rocket 4.0 23:22:54 10° NNW 23:26:36 46° WNW 23:26:36 46° WNW
COSMOS 2428 3.2 23:25:22 36° SW 23:27:31 57° WNW 23:33:08 10° NNE
NOSS 3-1 (C) 3.4 23:28:28 68° NE 23:28:28 68° NE 23:34:00 10° NE
Milstar 3 4.3 23:26:10 10° WSW 23:29:31 19° SW 23:29:31 19° SW
Cosmos 2360 Rocket 4.3 23:28:14 10° WSW 23:32:45 24° NW 23:37:17 10° N
SPOT 5 4.3 23:41:19 31° W 23:41:19 31° W 23:45:14 10° NW
NOSS 3-1 (A) 4.1 23:45:12 45° NE 23:45:12 45° NE 23:49:33 10° NE
Cosmos 1844 4.0 23:38:32 10° NNW 23:43:17 64° NNW 23:43:17 64° NNW
SL-16 R/B 4.5 23:50:52 13° NE 23:50:52 13° NE 23:51:34 10° NE
ASTEX 1 4.3 23:49:15 46° NNW 23:49:15 46° NNW 23:52:45 10° N
ATLAS 5 CENTAUR R/B 4.0 23:47:56 10° WNW 23:52:51 25° WSW 23:53:09 25° WSW
